Location: Honolulu
(21.3069°N, 157.8583°W)
Time: 06:13:11
(UTC-10:00)

A-11 Canister half - Pass Details

Date: 14 May 2026
Orbit: 1524 x 1684 km, 47.3° (Epoch: 5 June)

Event Time Altitude Azimuth Distance (km) Brightness Sun altitude
Rises 22:04:41 0° 321° (NW) 4,834 12.6 -36.7°
Reaches altitude 10° 22:09:06 10° 338° (NNW) 3,875 11.8 -37.4°
Maximum altitude 22:15:53 20° 22° (NNE) 3,186 10.8 -38.4°
Enters shadow 22:20:58 14° 57° (ENE) 3,623 10.8 -39.2°
